This demonstration page uses our WeatherBlox Daily Observations layout. Learn more.

Left ArrowRight Arrow

39.92423, -83.80882

Hourly Observations for March 20, 2019

Temp ( °F °C ) Dew Point ( °F °C ) Humidity (%) Winds ( mph kmh ) Pressure ( in mb ) Visibility ( mi km ) Precip ( " mm )
12:56 am 00:56 Clear 30 -1.1 26 -3.3 85 85 ESE 3 6 30.34 1027 10 16.0934 0 0
1:56 am 01:56 Clear 32 0 25 -3.9 75 75 E 3 6 30.33 1027 10 16.0934 0 0
2:56 am 02:56 Clear 30 -1.1 25 -3.9 82 82 E 3 6 30.32 1027 10 16.0934 0 0
3:56 am 03:56 Clear 26 -3.3 24 -4.4 92 92 ESE 6 9 30.29 1026 10 16.0934 0 0
4:56 am 04:56 Clear 27 -2.8 25 -3.9 92 92 ESE 5 7 30.27 1025 10 16.0934 0 0
5:56 am 05:56 Clear 27 -2.8 25 -3.9 92 92 E 3 6 30.27 1025 10 16.0934 0 0
6:56 am 06:56 Partly Cloudy 27 -2.8 26 -3.3 96 96 E 3 6 30.27 1025 10 16.0934 0 0
7:56 am 07:56 Sunny 26 -3.3 23 -5 88 88 SE 5 7 30.27 1025 10 16.0934 0 0
8:56 am 08:56 Sunny 32 0 28 -2.2 85 85 ESE 6 9 30.27 1025 10 16.0934 0 0
9:56 am 09:56 Sunny 39 3.9 29 -1.7 67 67 SSE 7 11 30.26 1025 10 16.0934 0 0
12:56 pm 12:56 Cloudy 49 9.4 26 -3.3 41 41 SW 14 22 30.19 1022 10 16.0934 0 0
1:56 pm 13:56 Cloudy 51 10.6 27 -2.8 39 39 SW 10 17 30.16 1021 10 16.0934 0 0
2:56 pm 14:56 Cloudy 51 10.6 27 -2.8 39 39 SSW 10 17 30.12 1020 10 16.0934 0 0
3:56 pm 15:56 Mostly Cloudy 51 10.6 26 -3.3 38 38 SSW 8 13 30.09 1019 10 16.0934 0 0
4:56 pm 16:56 Cloudy 52 11.1 26 -3.3 37 37 S 10 17 30.06 1018 10 16.0934 0 0
5:56 pm 17:56 Cloudy 53 11.7 29 -1.7 40 40 S 6 9 30.03 1017 10 16.0934 0 0
6:56 pm 18:56 Cloudy 52 11.1 28 -2.2 40 40 S 3 6 30.01 1016 10 16.0934 0 0
7:56 pm 19:56 Cloudy 51 10.6 28 -2.2 41 41 SSW 6 9 30.01 1016 10 16.0934 0 0
8:56 pm 20:56 Cloudy 50 10 29 -1.7 44 44 S 6 9 30 1016 10 16.0934 0 0
9:56 pm 21:56 Cloudy 48 8.9 32 0 54 54 W 13 20 30.01 1016 10 16.0934 0 0
10:56 pm 22:56 Cloudy 46 7.8 37 2.8 71 71 W 8 13 30.01 1016 10 16.0934 0 0
11:56 pm 23:56 Cloudy 45 7.2 40 4.4 83 83 WSW 16 26 30 1016 10 16.0934 0 0

Powered by AerisWeather